Regional Weather Roundup
Issued by NWS Goodland, KS

Home | Current Version | Previous Version | Graphics & Text | Print | Product List | Glossary On
Versions: 1 2 3 4 5 6 7 8 9 10 11 12 13 14 15 16 17 18 19 20 21 22 23 24 25 26 27 28 29 30 31 32 33 34 35 36 37 38 39 40 41 42 43 44 45 46 47 48 49 50
000
ASUS43 KGLD 161608
RWRGLD

GOODLAND FORECAST AREA HOURLY WEATHER ROUNDUP
NATIONAL WEATHER SERVICE GOODLAND KS
1000 AM MDT TUE SEP 16 2014

...OFFICIAL OBSERVATIONS...

CITY           SKY/WX    TMP DP  RH WIND       PRES   REMARKS
GOODLAND KS    MOSUNNY   64  54  69 S15G22    30.16S
HILL CITY KS   CLOUDY    60  52  74 S13       30.18F
IMPERIAL NEB   MOSUNNY   66  54  65 S15G24    30.09F
MCCOOK NEB     CLOUDY    62  53  72 S10       30.14F
AKRON CO       SUNNY     68  51  54 W21       30.14R
BURLINGTON CO  SUNNY     65  52  62 SW15      30.16S
LIMON CO       NOT AVBL
$$

...UNOFFICIAL OBSERVATIONS...

CITY           SKY/WX    TMP DP  RH WIND       PRES   REMARKS
COLBY KS       CLOUDY    63  59  88 SE13      30.17S
GOVE KS          N/A     59  32  36 MISG        N/A
NORTON KS      CLOUDY    57  48  72 S8        30.17R
SHARON SPRINGS   N/A     64  56  76 S12G20      N/A
TRIBUNE KS     PTSUNNY   66  59  77 S14       30.19F
WAKEENEY KS      N/A     57  51  80 MISG        N/A
TRENTON NEB      N/A     62  32  32 S15         N/A
YUMA CO          N/A     66  54  66 CALM        N/A
$$


USA.gov is the U.S. government's official web portal to all federal, state and local government web resources and services.